www.pogodaiklimat.ru

Погода и климат >> Архив погоды >> Бразилия >> Мату-Гросу >> Кампу-Нову-ду-Паресис


ПОГОДА в Кампу-Нову-ду-Паресисе

  • Прогноз погоды в Кампу-Нову-ду-Паресисе
  • Монитор погоды в Кампу-Нову-ду-Паресисе

АРХИВ ПОГОДЫ в Кампу-Нову-ду-Паресисе

Время (UTC), дата Ветер
(напр.,м/с)
 
Видим.   Явления Облачность Т
(С)
Тd
(С)
f
(%)
Тe
(С)
Тes
(С)
Комфортность P
(гПа)
Po
(гПа)
Тmin
(С)
Tmax
(С)
R
(мм)
R24
(мм)
S
(см)
07 18.06 штиль 0
{1}
н/о н/о +17.7 -28.2 3 +18 +18 1014.7 953.9
08 18.06 штиль 0
{1}
н/о н/о +17.3 -28.4 3 +17 +17 1014.8 954.0
09 18.06 штиль 0
{1}
н/о н/о +17.1 -28.6 3 +17 +17 1015.3 954.4
10 18.06 штиль 0
{1}
н/о н/о +16.5 -29.0 3 +17 +17 1016.3 955.2
11 18.06 штиль 0 н/о н/о +16.9 -28.7 3 +17 +17 1016.8 955.8
12 18.06 штиль 0
{1}
н/о н/о +21.2 -25.8 3 +19 +19 1016.6 956.4
13 18.06 ЮЗ 1
{2}
н/о н/о +25.6 -22.9 3 +22 +22 комфорт 1015.8 956.5
14 18.06 ЮЗ 2
{4}
н/о н/о +27.5 -21.6 3 +23 +23 комфорт 1015.6 956.7
15 18.06 ЮЗ 2
{4}
н/о н/о +28.8 -20.7 3 +24 +24 комфорт 1014.7 956.1
16 18.06 ЮЗ 2
{4}
н/о н/о +29.5 -20.2 3 +25 +25 комфорт 1013.6 955.2
17 18.06 ЮЗ 2
{4}
н/о н/о +29.8 -20.1 3 +25 +25 комфорт 1012.5 954.2
18 18.06 ЮЗ 2
{4}
н/о н/о +30.3 -19.7 3 +26 +26 жарко 1011.5 953.4
19 18.06 ЮЗ 2
{4}
н/о н/о +30.3 -19.7 3 +26 +26 жарко 1011.0 952.9
20 18.06 ЮЗ 2
{3}
н/о н/о +29.8 -20.1 3 +25 +25 комфорт 1011.1 952.9
21 18.06 ЮЗ 1
{3}
н/о н/о +28.8 -20.7 3 +24 +24 комфорт 1011.5 953.1
22 18.06 штиль 0
{2}
н/о н/о +24.8 -23.4 3 +21 +21 комфорт 1013.0 953.7
23 18.06 ЮЗ 1
{1}
н/о н/о +24.0 -23.9 3 +21 +21 комфорт 1013.8 954.3
01 19.06 штиль 0
{1}
н/о н/о +22.3 -25.1 3 +19 +19 1015.2 955.3
02 19.06 штиль 0
{1}
н/о н/о +20.4 -26.4 3 +19 +19 1015.8 955.5
03 19.06 штиль 0
{1}
н/о н/о +19.6 -26.9 3 +19 +19 1015.8 955.4
04 19.06 штиль 0
{1}
н/о н/о +19.4 -27.1 3 +19 +19 1015.9 955.4
05 19.06 штиль 0 н/о н/о +18.6 -27.6 3 +18 +18 1015.6 955.0
06 19.06 ЮЗ 1
{1}
н/о н/о +17.8 -28.1 3 +19 +19 1015.6 954.8
07 19.06 штиль 0
{1}
н/о н/о +17.4 -28.4 3 +17 +17 1015.6 954.7
08 19.06 штиль 0
{1}
н/о н/о +17.0 -28.7 3 +17 +17 1015.9 954.9
09 19.06 штиль 0
{1}
н/о н/о +16.4 -29.1 3 +17 +17 1016.5 955.4
10 19.06 штиль 0 н/о н/о +16.4 -29.1 3 +17 +17 1017.3 956.1
11 19.06 штиль 0
{1}
н/о н/о +16.4 -29.1 3 +17 +17 1018.0 956.8
12 19.06 штиль 0
{1}
н/о н/о +20.3 -26.4 3 +19 +19 1018.4 957.9
13 19.06 штиль 0
{1}
н/о н/о +25.7 -22.8 3 +22 +22 комфорт 1017.7 958.3
14 19.06 ЮЗ 1
{2}
н/о н/о +29.1 -20.5 3 +25 +25 комфорт 1017.0 958.3
15 19.06 ЮЗ 1
{4}
н/о н/о +29.0 -20.6 3 +24 +24 комфорт 1016.5 957.8
16 19.06 ЮЗ 1
{3}
н/о н/о +30.1 -19.8 3 +25 +25 комфорт 1015.7 957.3
17 19.06 ЮЗ 1
{3}
н/о н/о +31.3 -19.0 3 +27 +27 жарко 1014.5 956.4
18 19.06 ЮЗ 1
{3}
н/о н/о +31.0 -19.2 3 +26 +26 жарко 1013.5 955.4
19 19.06 ЮЗ 1
{2}
н/о н/о +31.6 -18.8 3 +27 +27 жарко 1013.0 955.0
20 19.06 ЮЗ 1
{2}
н/о н/о +31.4 -19.0 3 +27 +27 жарко 1012.8 954.8
21 19.06 штиль 0
{1}
н/о н/о +30.2 -19.7 3 +26 +26 жарко 1013.0 954.8
22 19.06 штиль 0
{1}
н/о н/о +26.3 -22.4 3 +22 +22 комфорт 1013.9 954.9
23 19.06 ЮЗ 1
{2}
н/о н/о +26.3 -22.4 3 +22 +22 комфорт 1014.4 955.4
01 20.06 ЮЗ 1
{2}
н/о н/о +21.8 -25.4 3 +19 +19 1016.7 956.6
02 20.06 штиль 0
{2}
н/о н/о +21.5 -25.6 3 +19 +19 1016.9 956.8
03 20.06 ЮЗ 1
{1}
н/о н/о +21.9 -25.3 3 +19 +19 1017.0 956.9
04 20.06 ЮЗ 1
{1}
н/о н/о +19.8 -26.8 3 +20 +20 1017.3 956.8
05 20.06 ЮЗ 1
{1}
н/о н/о +19.7 -26.9 3 +20 +20 1016.9 956.4
06 20.06 штиль 0
{1}
н/о н/о +19.5 -27.0 3 +19 +19 1016.7 956.2
07 20.06 штиль 0
{1}
н/о н/о +18.9 -27.4 3 +18 +18 1016.7 956.1
08 20.06 ЮЗ 1
{2}
н/о н/о +19.3 -27.1 3 +20 +20 1017.0 956.4
09 20.06 ЮЗ 1
{1}
н/о н/о +18.7 -27.5 3 +20 +20 1017.2 956.5
10 20.06 штиль 0
{1}
н/о н/о +18.6 -27.6 3 +18 +18 1017.4 956.7
11 20.06 штиль 0
{1}
н/о н/о +19.5 -27.0 3 +19 +19 1017.8 957.2
12 20.06 ЮЗ 1
{2}
н/о н/о +22.7 -24.8 3 +20 +20 1018.1 958.1
13 20.06 ЮЗ 2
{3}
н/о н/о +25.9 -22.6 3 +22 +22 комфорт 1017.7 958.4
14 20.06 ЮЗ 2
{4}
н/о н/о +28.1 -21.2 3 +24 +24 комфорт 1017.2 958.3
15 20.06 ЮЗ 2
{4}
н/о н/о +29.8 -20.1 3 +25 +25 комфорт 1016.5 958.0
17 20.06 ЮЗ 2
{4}
н/о н/о +30.7 -19.4 3 +26 +26 жарко 1014.8 956.6
18 20.06 ЮЗ 2
{4}
н/о н/о +30.9 -19.3 3 +26 +26 жарко 1014.1 955.9
19 20.06 ЮЗ 1
{3}
н/о н/о +30.1 -19.8 3 +25 +25 комфорт 1013.9 955.6
20 20.06 ЮЗ 2
{4}
н/о н/о +30.4 -19.6 3 +26 +26 жарко 1013.4 955.2
21 20.06 ЮЗ 1
{3}
н/о н/о +28.3 -21.0 3 +24 +24 комфорт 1013.9 955.3
22 20.06 ЮЗ 1
{3}
н/о н/о +25.4 -23.0 3 +22 +22 комфорт 1015.0 955.7
23 20.06 ЮЗ 1
{2}
н/о н/о +23.5 -24.3 3 +20 +20 1015.7 956.0
00 21.06 ЮЗ 1
{2}
н/о н/о +22.1 -25.2 3 +19 +19 1016.4 956.4
01 21.06 ЮЗ 1
{2}
н/о н/о +21.6 -25.6 3 +19 +19 1017.1 957.0
02 21.06 ЮЗ 1
{2}
н/о н/о +21.4 -25.7 3 +19 +19 1017.2 957.0
03 21.06 ЮЗ 1
{2}
н/о н/о +21.1 -25.9 3 +19 +19 1017.2 957.0
04 21.06 ЮЗ 1
{3}
н/о н/о +21.1 -25.9 3 +19 +19 1017.0 956.8
05 21.06 ЮЗ 1
{2}
н/о н/о +20.3 -26.4 3 +21 +21 комфорт 1016.8 956.4
07 21.06 ЮЗ 1
{2}
н/о н/о +19.7 -26.8 3 +20 +20 1016.2 955.8
08 21.06 штиль 0
{2}
н/о н/о +18.9 -27.3 3 +18 +18 1016.4 955.8
09 21.06 ЮЗ 1
{1}
н/о н/о +18.3 -27.8 3 +20 +20 1016.9 956.1
10 21.06 штиль 0
{1}
н/о н/о +17.9 -28.1 3 +18 +18 1017.4 956.5
11 21.06 штиль 0
{1}
н/о н/о +18.4 -27.7 3 +18 +18 1017.9 957.1
12 21.06 ЮЗ 1
{2}
н/о н/о +21.4 -25.7 3 +19 +19 1018.0 957.8
13 21.06 ЮЗ 1
{3}
н/о н/о +24.9 -23.3 3 +21 +21 комфорт 1017.6 958.1
14 21.06 ЮЗ 2
{3}
н/о н/о +29.0 -20.6 3 +24 +24 комфорт 1016.9 958.2
15 21.06 ЮЗ 2
{5}
н/о н/о +30.6 -19.5 3 +26 +26 жарко 1016.2 957.9
16 21.06 ЮЗ 2
{5}
н/о н/о +30.4 -19.6 3 +26 +26 жарко 1015.5 957.2
17 21.06 ЮЗ 2
{4}
н/о н/о +31.2 -19.1 3 +26 +26 жарко 1014.5 956.4
18 21.06 ЮЗ 2
{4}
н/о н/о +31.1 -19.2 3 +26 +26 жарко 1013.7 955.6
19 21.06 ЮЗ 2
{4}
н/о н/о +31.6 -18.9 3 +27 +27 жарко 1013.4 955.4
20 21.06 ЮЗ 2
{3}
н/о н/о +29.7 -20.1 3 +25 +25 комфорт 1013.7 955.3
21 21.06 ЮЗ 1
{3}
н/о н/о +29.0 -20.6 3 +24 +24 комфорт 1014.0 955.5
22 21.06 ЮЗ 1
{3}
н/о н/о +27.2 -21.8 3 +23 +23 комфорт 1014.8 955.9
23 21.06 ЮЗ 1
{2}
н/о н/о +25.7 -22.8 3 +22 +22 комфорт 1015.4 956.2
00 22.06 ЮЗ 1
{1}
н/о н/о +22.8 -24.8 3 +20 +20 1016.6 956.7
01 22.06 штиль 0
{1}
н/о н/о +21.6 -25.6 3 +19 +19 1017.3 957.2
02 22.06 ЮЗ 1
{1}
н/о н/о +21.1 -25.9 3 +19 +19 1017.7 957.4
03 22.06 ЮЗ 1
{1}
н/о н/о +20.8 -26.1 3 +21 +21 комфорт 1017.8 957.5
04 22.06 штиль 0
{1}
н/о н/о +20.5 -26.3 3 +19 +19 1018.0 957.6
05 22.06 штиль 0
{1}
н/о н/о +20.0 -26.6 3 +19 +19 1017.9 957.4
06 22.06 ЮЗ 1
{1}
н/о н/о +19.2 -27.2 3 +20 +20 1017.9 957.3
07 22.06 штиль 0
{1}
н/о н/о +19.1 -27.2 3 +18 +18 1017.8 957.1
08 22.06 ЮЗ 1
{1}
н/о н/о +18.3 -27.8 3 +20 +20 1017.8 957.0
09 22.06 ЮЗ 1
{1}
н/о н/о +18.1 -27.9 3 +20 +20 1018.1 957.2
10 22.06 ЮЗ 1
{1}
н/о н/о +17.9 -28.1 3 +20 +20 1018.5 957.6
11 22.06 штиль 0
{1}
н/о н/о +17.8 -28.1 3 +18 +18 1019.3 958.3
12 22.06 штиль 0
{1}
н/о н/о +22.5 -24.9 3 +20 +20 1018.8 958.8
13 22.06 ЮЗ 1
{2}
н/о н/о +26.4 -22.3 3 +22 +22 комфорт 1018.7 959.4
14 22.06 ЮЗ 1
{4}
н/о н/о +29.4 -20.3 3 +25 +25 комфорт 1018.1 959.4
15 22.06 ЮЗ 2
{4}
н/о н/о +30.5 -19.6 3 +26 +26 жарко 1017.4 959.0
16 22.06 ЮЗ 2
{5}
н/о н/о +30.6 -19.5 3 +26 +26 жарко 1016.7 958.3
17 22.06 ЮЗ 2
{5}
н/о н/о +30.8 -19.4 3 +26 +26 жарко 1016.0 957.7
18 22.06 ЮЗ 2
{4}
н/о н/о +30.9 -19.3 3 +26 +26 жарко 1015.3 957.1
19 22.06 ЮЗ 2
{5}
н/о н/о +31.1 -19.1 3 +26 +26 жарко 1014.8 956.6
20 22.06 ЮЗ 2
{3}
н/о н/о +30.5 -19.6 3 +26 +26 жарко 1014.8 956.5
21 22.06 ЮЗ 1
{3}
н/о н/о +28.9 -20.6 3 +24 +24 комфорт 1015.2 956.6
22 22.06 ЮЗ 1
{2}
н/о н/о +25.7 -22.8 3 +22 +22 комфорт 1015.8 956.6
23 22.06 ЮЗ 1
{1}
н/о н/о +24.3 -23.7 3 +21 +21 комфорт 1016.5 956.9
00 23.06 ЮЗ 1
{1}
н/о н/о +21.8 -25.4 3 +19 +19 1017.5 957.4
01 23.06 штиль 0
{1}
н/о н/о +21.5 -25.6 3 +19 +19 1018.0 957.8
02 23.06 штиль 0
{1}
н/о н/о +20.6 -26.2 3 +19 +19 1018.4 958.0
03 23.06 ЮЗ 1
{1}
н/о н/о +20.4 -26.4 3 +21 +21 комфорт 1018.1 957.7
04 23.06 ЮЗ 1
{1}
н/о н/о +19.4 -27.0 3 +20 +20 1018.4 957.8
05 23.06 ЮЗ 1
{1}
н/о н/о +19.4 -27.0 3 +20 +20 1017.7 957.1
06 23.06 штиль 0
{1}
н/о н/о +19.0 -27.3 3 +18 +18 1017.2 956.6
07 23.06 ЮЗ 1
{1}
н/о н/о +18.1 -27.9 3 +20 +20 1017.2 956.4
08 23.06 штиль 0
{1}
н/о н/о +17.6 -28.3 3 +18 +18 1017.3 956.4
09 23.06 штиль 0
{1}
н/о н/о +17.3 -28.5 3 +17 +17 1017.8 956.8
10 23.06 штиль 0
{1}
н/о н/о +16.9 -28.7 3 +17 +17 1018.2 957.1
11 23.06 ЮЗ 1
{1}
н/о н/о +17.4 -28.4 3 +19 +19 1018.7 957.6
12 23.06 штиль 0
{1}
н/о н/о +22.8 -24.8 3 +20 +20 1018.1 958.2
13 23.06 ЮЗ 1
{2}
н/о н/о +26.1 -22.5 3 +22 +22 комфорт 1017.8 958.5
14 23.06 ЮЗ 2
{3}
н/о н/о +29.4 -20.3 3 +25 +25 комфорт 1016.8 958.2
15 23.06 ЮЗ 2
{4}
н/о н/о +30.2 -19.8 3 +26 +26 жарко 1016.0 957.6
16 23.06 ЮЗ 2
{4}
н/о н/о +30.1 -19.8 3 +25 +25 комфорт 1015.4 957.0
17 23.06 ЮЗ 1
{4}
н/о н/о +30.2 -19.8 3 +26 +26 жарко 1014.7 956.4
18 23.06 ЮЗ 1
{4}
н/о н/о +30.6 -19.5 3 +26 +26 жарко 1013.7 955.5
19 23.06 ЮЗ 1
{4}
н/о н/о +30.8 -19.4 3 +26 +26 жарко 1012.9 954.8
20 23.06 ЮЗ 1
{3}
н/о н/о +30.3 -19.7 3 +26 +26 жарко 1012.7 954.5
21 23.06 ЮЗ 1
{2}
н/о н/о +29.1 -20.5 3 +25 +25 комфорт 1012.8 954.4
22 23.06 ЮЗ 1
{2}
н/о н/о +26.2 -22.5 3 +22 +22 комфорт 1013.3 954.3
23 23.06 ЮЗ 1
{2}
н/о н/о +24.6 -23.5 3 +21 +21 комфорт 1013.7 954.4
01 24.06 ЮЗ 1
{2}
н/о н/о +22.5 -24.9 3 +20 +20 1014.4 954.6
02 24.06 ЮЗ 1
{2}
н/о н/о +22.3 -25.1 3 +19 +19 1014.2 954.4
03 24.06 штиль 0
{1}
н/о н/о +19.7 -26.8 3 +19 +19 1014.7 954.3
04 24.06 штиль 0 н/о н/о +18.8 -27.4 3 +18 +18 1014.7 954.2
05 24.06 штиль 0
{1}
н/о н/о +17.6 -28.3 3 +18 +18 1014.5 953.7
06 24.06 штиль 0
{1}
н/о н/о +17.6 -28.2 3 +18 +18 1014.1 953.4
07 24.06 штиль 0
{1}
н/о н/о +15.4 -29.7 3 +16 +16 1014.6 953.4
08 24.06 штиль 0
{1}
н/о н/о +16.4 -29.1 3 +17 +17 1014.4 953.4
09 24.06 штиль 0
{1}
н/о н/о +15.5 -29.7 3 +16 +16 1015.0 953.8
10 24.06 штиль 0
{1}
н/о н/о +15.1 -29.9 3 +15 +15 1015.6 954.3
11 24.06 штиль 0
{1}
н/о н/о +16.1 -29.2 3 +16 +16 1016.0 954.8
12 24.06 штиль 0
{1}
н/о н/о +20.4 -26.4 3 +19 +19 1015.6 955.3
13 24.06 ЮЗ 1
{2}
н/о н/о +24.2 -23.8 3 +21 +21 комфорт 1015.0 955.5
14 24.06 ЮЗ 2
{4}
н/о н/о +27.4 -21.7 3 +23 +23 комфорт 1014.1 955.3
15 24.06 ЮЗ 2
{5}
н/о н/о +27.5 -21.6 3 +23 +23 комфорт 1013.6 954.8
16 24.06 ЮЗ 2
{5}
н/о н/о +28.5 -20.9 3 +24 +24 комфорт 1012.5 954.0
17 24.06 ЮЗ 2
{5}
н/о н/о +28.9 -20.6 3 +24 +24 комфорт 1011.6 953.2
18 24.06 ЮЗ 2
{4}
н/о н/о +29.7 -20.1 3 +25 +25 комфорт 1010.5 952.3
19 24.06 ЮЗ 2
{4}
н/о н/о +29.4 -20.3 3 +25 +25 комфорт 1009.9 951.7
20 24.06 ЮЗ 2
{4}
н/о н/о +28.9 -20.6 3 +24 +24 комфорт 1009.9 951.6
21 24.06 ЮЗ 1
{3}
н/о н/о +27.9 -21.3 3 +24 +24 комфорт 1010.8 952.3
22 24.06 ЮЗ 1
{2}
н/о н/о +24.1 -23.9 3 +21 +21 комфорт 1011.4 952.1
23 24.06 ЮЗ 1
{2}
н/о н/о +21.6 -25.5 3 +19 +19 1012.2 952.4
00 25.06 ЮЗ 1
{2}
н/о н/о +21.2 -25.8 3 +19 +19 1012.6 952.7
01 25.06 ЮЗ 1
{2}
н/о н/о +20.7 -26.2 3 +20 +20 1013.2 953.1
02 25.06 ЮЗ 1
{2}
н/о н/о +20.0 -26.6 3 +20 +20 1013.3 953.1
03 25.06 ЮЗ 1
{3}
н/о н/о +19.5 -27.0 3 +20 +20 1013.2 952.9
04 25.06 ЮЗ 1
{2}
н/о н/о +19.1 -27.3 3 +20 +20 1012.9 952.5
05 25.06 ЮЗ 1
{2}
н/о н/о +18.5 -27.7 3 +19 +19 1012.2 951.8
06 25.06 ЮЗ 1
{2}
н/о н/о +18.8 -27.4 3 +20 +20 1011.7 951.3

 

Местоположение метеостанции Кампу-Нову-ду-Паресис (Мату-Гросу, Бразилия): широта -13.78 долгота -57.83 высота над уровнем моря 572 м.

В архиве по умолчанию представлена погода в Кампу-Нову-ду-Паресисе за последнюю неделю. Архивные данные за месяц целиком и за предыдущие месяцы, начиная с января 2011 года, Вы можете получить, выбрав интересующий диапазон дат из раскрывающегося списка и нажав кнопку "Ввод!".


*Определитесь, кто Вы:
робот инопланетянин человек

Внимание! Время в таблицах - всемирное. Для получения местного времени необходимо прибавить поправку, которая равна -3 ч.

Смотрите также архив погоды в соседних городах и на ближайших метеорологических станциях:

Погода в Тангара-да-Серре (Мату-Гросу, Бразилия) (106 км)
Погода в Нова-Маринге (Мату-Гросу, Бразилия) (115 км)
Погода в Сан-Хосе-ду-Рио-Кларо (Мату-Гросу, Бразилия) (131 км)
Погода в Ново-Мундо (Мату-Гросу, Бразилия) (147 км)
Погода в Салту-ду-Сеу (Мату-Гросу, Бразилия) (154 км)
Погода в Диамантину (Мату-Гросу, Бразилия) (164 км)
Погода в Порто-Эстреле (Мату-Гросу, Бразилия) (184 км)
Погода в Комодоро (Мату-Гросу, Бразилия) (210 км)
Погода в Глеба Селеста (Мату-Гросу, Бразилия) (227 км)
Погода в Понтис-и-Ласерде (Мату-Гросу, Бразилия) (231 км)

Пояснения к столбцам:

Ветер - указаны скорость ветра в м/с - средняя за 10 мин, порывы в срок и между сроками (в фигурных скобках) и направление, откуда дует ветер: С - северный, СВ - северо-восточный, В - восточный, ЮВ - юго-восточный, Ю - южный, ЮЗ - юго-западный, З - западный, СЗ - северо-западный.
Видимость - горизонтальная дальность видимости в метрах или километрах. При видимости от 1 до 10 км при отсутствии осадков обычно наблюдается дымка, при ухудшении видимости до 1 км и менее - туман. В сухую погоду видимость может ухудшаться дымом, пылью или мглою.
Явления - указаны атмосферные явления, наблюдавшиеся в срок или в последний час перед сроком; фигурными скобками обозначены явления, наблюдавшиеся между сроками (за 1-3 часа до срока); квадратными скобками обозначены град или гололедные отложения с указанием их диаметра в мм.
Облачность - указаны через наклонную черту общая и нижняя облачность в баллах и высота нижней границы облаков в метрах; квадратными скобками обозначены формы облаков: Ci - перистые, Cs - перисто-слоистые, Cc - перисто-кучевые, Ac - высококучевые, As - высокослоистые, Sc - слоисто-кучевые, Ns - слоисто-дождевые, Cu - кучевые, Cb - кучево-дождевые. Подробнее классификацию облаков см. в Атласе облаков (PDF).
T - Температура воздуха - температура, измеренная на высоте 2 м над землей.
Td - Температура точки росы - температура, при понижении до которой содержащийся в воздухе водяной пар достигнет насыщения.
f - Относительная влажность воздуха - влажноcть воздуха, измеренная на высоте 2 м над землей.
Te - Эффективная температура - температура, которую ощущает одетый по сезону человек в тени. Характеристика душности погоды. При расчете учитывается влияние влажности воздуха и скорости ветра на теплоощущения человека.
Tes - Эффективная температура на солнце - температура, которую ощущает человек, с поправкой на солнечный нагрев. Характеристика знойности погоды. Зависит от высоты солнца над горизонтом, облачности и скорости ветра. Ночью, в пасмурную погоду, а также при ветре 12 м/с и более поправка равна нулю.
P - Атмосферное давление - приведенное к уровню моря атмосферное давление.
Po - Атмосферное давление - измеренное на уровне метеостанции атмосферное давление.
Tmin - Минимальная температура - минимум температуры воздуха на высоте 2 м над землей.
Tmax - Максимальная температура - максимум температуры воздуха на высоте 2 м над землей.
R - Количество осадков - Количество выпавших осадков за период времени, мм. При наведении курсора мыши на число - период времени, за который выпало указанное количество осадков.
R24 - Количество осадков - Количество выпавших осадков за 24 часа, мм.
S - Снежный покров - Высота снежного покрова, см. При наведении курсора мыши на число - состояние снежного покрова и степень покрытия местности в баллах.